Weather History for Cartersville, GA

Change the Weather History Date:

Wednesday, August 8, 2012

  Actual Average Record
Temperature  
Mean Temperature 27 °C 26 °C  
Max Temperature 34 °C 32 °C 37 °C (2007)
Min Temperature 21 °C 20 °C 12 °C (2004)
Cooling Degree Days 16 14  
Month to date cooling degree days 112  
Year to date cooling degree days 968  
Since 1 June cooling degree days 819  
Growing Degree Days 31 (Base 50)    
Moisture  
Dew Point 21 °C    
Average Humidity 83    
Maximum Humidity 100    
Minimum Humidity 39    
Precipitation  
Precipitation 7.37 mm 3.81 mm 3.61 mm (1974)
Month to date precipitation 1.29  
Year to date precipitation 31.95  
Sea Level Pressure  
Sea Level Pressure 1016 hPa    
Wind  
Wind Speed 2 km/h (SE)    
Max Wind Speed 21 km/h    
Max Gust Speed 42 km/h    
Visibility 14 kilometers    
Events Rain , Thunderstorm    
T = Trace of Precipitation, MM = Missing Value Source: NWS Daily Summary

Daily Weather History Graph

Daily Weather History Graph

Search for Another Location

Airport:

Trip Planner

Search our weather history database for the weather conditions in past years. The results will help you decide how hot, cold, wet, or windy it might be!

Date:

Astronomy

Aug. 08, 2012 Rise Set
Actual Time 6:56 AM EDT 8:33 PM EDT
Civil Twilight 6:29 AM EDT 9:00 PM EDT
Nautical Twilight 5:56 AM EDT 9:32 PM EDT
Astronomical Twilight 5:22 AM EDT 10:06 PM EDT
Moon No Moon Rise 1:18 PM EDT (8/8)
Length of Visible Light 14h 31m
Length of Day
13h 37m
Waning Gibbous, 61% of the Moon is Illuminated
Aug 8
Waning Gibbous
Aug 9
Last Quarter
Aug 17
New
Aug 24
First Quarter
Aug 31
Full

Hourly Weather History & Observations

Time (EDT) Temp. Heat Index Dew Point Humidity Pressure Visibility Wind Dir Wind Speed Gust Speed Precip Events Conditions
12:53 AM 21.7 °C - 21.1 °C 96% 1015.9 hPa 16.1 km Calm Calm - N/A   Clear
1:53 AM 21.7 °C - 21.1 °C 96% 1015.6 hPa 16.1 km Calm Calm - N/A   Clear
2:53 AM 21.1 °C - 20.6 °C 97% 1015.5 hPa 16.1 km Calm Calm - N/A   Clear
3:53 AM 21.1 °C - 21.1 °C 100% 1015.2 hPa 16.1 km Calm Calm - N/A   Mostly Cloudy
4:26 AM 21.0 °C - 21.0 °C 100% 1016.1 hPa 16.1 km Calm Calm - N/A   Scattered Clouds
4:53 AM 21.1 °C - 21.1 °C 100% 1014.9 hPa 16.1 km Calm Calm - N/A   Partly Cloudy
5:53 AM 20.6 °C - 20.6 °C 100% 1014.9 hPa 14.5 km Calm Calm - N/A   Clear
6:22 AM 21.0 °C - 21.0 °C 100% 1016.5 hPa 16.1 km Calm Calm - N/A   Scattered Clouds
6:31 AM 21.0 °C - 21.0 °C 100% 1016.5 hPa 16.1 km Calm Calm - N/A   Mostly Cloudy
6:53 AM 20.6 °C - 20.6 °C 100% 1015.6 hPa 6.4 km Calm Calm - N/A   Overcast
7:18 AM 21.0 °C - 21.0 °C 100% 1017.2 hPa 8.0 km Calm Calm - N/A   Overcast
7:53 AM 21.7 °C - 21.7 °C 100% 1016.2 hPa 14.5 km Calm Calm - N/A   Overcast
8:28 AM 23.0 °C - 22.0 °C 94% 1017.8 hPa 16.1 km Calm Calm - N/A   Mostly Cloudy
8:53 AM 23.3 °C - 21.7 °C 91% 1016.9 hPa 16.1 km Calm Calm - N/A   Overcast
9:12 AM 24.0 °C - 22.0 °C 89% 1017.8 hPa 16.1 km Variable 5.6 km/h / 1.5 m/s - N/A   Mostly Cloudy
9:30 AM 24.0 °C - 22.0 °C 89% 1018.2 hPa 16.1 km Calm Calm - N/A   Mostly Cloudy
9:53 AM 23.9 °C - 22.2 °C 90% 1016.9 hPa 16.1 km Calm Calm - N/A   Overcast
10:53 AM 26.1 °C - 22.2 °C 79% 1017.0 hPa 16.1 km Calm Calm - N/A   Overcast
11:11 AM 27.0 °C 29.2 °C 22.0 °C 74% 1018.2 hPa 16.1 km Calm Calm - N/A   Scattered Clouds
11:53 AM 29.4 °C 32.6 °C 22.2 °C 65% 1016.7 hPa 16.1 km NNE 7.4 km/h / 2.1 m/s - N/A   Mostly Cloudy
12:02 PM 29.0 °C 32.0 °C 22.0 °C 66% 1017.8 hPa 16.1 km Variable 9.3 km/h / 2.6 m/s - N/A   Scattered Clouds
12:53 PM 31.1 °C 33.9 °C 21.1 °C 55% 1016.2 hPa 16.1 km Variable 9.3 km/h / 2.6 m/s - N/A   Partly Cloudy
1:53 PM 31.1 °C 33.4 °C 20.6 °C 53% 1015.5 hPa 16.1 km Calm Calm - N/A   Scattered Clouds
2:53 PM 32.2 °C 34.2 °C 20.0 °C 48% 1014.8 hPa 16.1 km Variable 5.6 km/h / 1.5 m/s - N/A   Partly Cloudy
3:53 PM 33.9 °C 35.8 °C 19.4 °C 42% 1013.8 hPa 16.1 km North 11.1 km/h / 3.1 m/s - N/A   Clear
4:53 PM 33.9 °C 35.0 °C 18.3 °C 39% 1013.4 hPa 16.1 km Calm Calm - N/A   Scattered Clouds
5:53 PM 32.8 °C 34.4 °C 18.9 °C 44% 1012.9 hPa 16.1 km Calm Calm - N/A   Partly Cloudy
6:32 PM 32.0 °C 33.5 °C 19.0 °C 46% 1014.1 hPa 16.1 km South 7.4 km/h / 2.1 m/s - N/A Thunderstorm Partly Cloudy
6:53 PM 31.1 °C 33.4 °C 20.6 °C 53% 1013.2 hPa 16.1 km SSW 7.4 km/h / 2.1 m/s - N/A Thunderstorm Thunderstorm
7:09 PM 24.0 °C - 22.0 °C 89% 1015.1 hPa 2.8 km SSW 20.4 km/h / 5.7 m/s 42.6 km/h / 11.8 m/s 1.8 mm Rain , Thunderstorm Thunderstorms and Rain
7:28 PM 23.0 °C - 22.0 °C 94% 1015.5 hPa 4.8 km SSE 14.8 km/h / 4.1 m/s 35.2 km/h / 9.8 m/s 5.6 mm Rain , Thunderstorm Light Thunderstorms and Rain
7:41 PM 23.0 °C - 22.0 °C 94% 1015.1 hPa 16.1 km Calm Calm - 7.4 mm Rain Light Rain
7:53 PM 23.3 °C - 22.2 °C 93% 1014.1 hPa 16.1 km ENE 7.4 km/h / 2.1 m/s - 7.4 mm   Mostly Cloudy
8:53 PM 23.3 °C - 22.8 °C 97% 1014.3 hPa 12.9 km Calm Calm - N/A   Partly Cloudy
9:53 PM 22.8 °C - 22.2 °C 96% 1014.7 hPa 14.5 km ESE 7.4 km/h / 2.1 m/s - N/A   Clear
10:53 PM 22.8 °C - 22.8 °C 100% 1014.8 hPa 9.7 km Calm Calm - N/A   Clear
11:53 PM 22.2 °C - 22.2 °C 100% 1014.8 hPa 9.7 km Calm Calm - N/A   Clear